Albert Lea, MN

3:30 AM CDT on September 20, 2019 (GMT -0500)
Albert Lea Municipal

Weather History for KAEL - August, 2019

Change the Weather History Date:

Sunday, August 18, 2019

  Actual Average Record
Temperature  
Mean Temperature 64 °F -  
Max Temperature 73 °F 75 °F 87 °F (2003)
Min Temperature 55 °F 57 °F 44 °F (2012)
Degree Days  
Heating Degree Days 1    
Growing Degree Days 14 (Base 50)    
Moisture  
Dew Point 62 °F    
Average Humidity 89    
Maximum Humidity 100    
Minimum Humidity 60    
Precipitation  
Precipitation 0.00 in - - ()
Sea Level Pressure  
Sea Level Pressure 29.84 in    
Wind  
Wind Speed 7 mph (West)    
Max Wind Speed 15 mph    
Max Gust Speed 37 mph    
Visibility 10 miles    
Events Rain , Thunderstorm    
Averages and records for this station are not official NWS values.
T = Trace of Precipitation, MM = Missing Value Source: NWS Daily Summary

Daily Weather History Graph

Daily Weather History Graph

Search for Another Location

Airport or City:

Astronomy

Aug. 18, 2019 Rise Set
Actual Time 6:21 AM CDT 8:12 PM CDT
Civil Twilight 5:50 AM CDT 8:43 PM CDT
Nautical Twilight 5:12 AM CDT 9:20 PM CDT
Astronomical Twilight 4:31 AM CDT 10:01 PM CDT
Moon 10:02 PM CDT (8/18) 9:10 AM CDT (8/18)
Length of Visible Light 14h 53m
Length of Day
13h 51m
Waning Gibbous, 91% of the Moon is Illuminated
Aug 18
Waning Gibbous
Aug 23
Last Quarter
Aug 30
New
Sep 5
First Quarter
Sep 13
Full

Hourly Weather History & Observations

Time (CDT) Temp. Dew Point Humidity Pressure Visibility Wind Dir Wind Speed Gust Speed Precip Events Conditions
12:15 AM 69.8 °F 68.0 °F 94% 29.72 in 10.0 mi SSE 9.2 mph 17.3 mph N/A   Scattered Clouds
12:35 AM 71.6 °F 68.0 °F 88% 29.72 in 10.0 mi South 12.7 mph 16.1 mph N/A   Scattered Clouds
12:36 AM 71.6 °F 68.0 °F 88% 29.71 in 10.0 mi South 10.4 mph 16.1 mph N/A   Scattered Clouds
12:55 AM 71.6 °F 69.8 °F 94% 29.68 in 10.0 mi South 15.0 mph 21.9 mph N/A Thunderstorm Clear
12:56 AM 71.6 °F 69.8 °F 94% 29.68 in 10.0 mi South 13.8 mph 21.9 mph N/A Thunderstorm Clear
1:15 AM 62.6 °F 62.6 °F 100% - 1.0 mi WSW 11.5 mph 36.8 mph N/A Rain , Thunderstorm Heavy Thunderstorms and Rain
1:35 AM 62.6 °F 60.8 °F 94% 29.76 in 4.0 mi South 8.1 mph - N/A Rain , Thunderstorm Thunderstorms and Rain
1:36 AM 62.6 °F 60.8 °F 94% 29.76 in 4.0 mi South 8.1 mph - N/A Rain , Thunderstorm Thunderstorms and Rain
1:55 AM 62.6 °F 62.6 °F 100% 29.74 in 5.0 mi South 8.1 mph - N/A Rain , Thunderstorm Thunderstorms and Rain
2:15 AM 62.6 °F 62.6 °F 100% 29.73 in 5.0 mi SW 9.2 mph 18.4 mph N/A Rain , Thunderstorm Thunderstorms and Rain
2:35 AM 62.6 °F 62.6 °F 100% 29.71 in 5.0 mi SW 3.5 mph 16.1 mph N/A Rain , Thunderstorm Thunderstorms and Rain
2:55 AM 62.6 °F 62.6 °F 100% 29.73 in 10.0 mi SW 5.8 mph - N/A Rain , Thunderstorm Thunderstorms and Rain
3:15 AM 62.6 °F 62.6 °F 100% 29.72 in 10.0 mi SSW 8.1 mph - N/A Rain , Thunderstorm Light Thunderstorms and Rain
3:35 AM 62.6 °F 62.6 °F 100% 29.72 in 10.0 mi SW 9.2 mph - N/A Thunderstorm Mostly Cloudy
3:55 AM 62.6 °F 62.6 °F 100% 29.72 in 10.0 mi SW 6.9 mph - N/A   Scattered Clouds
3:56 AM 62.6 °F 62.6 °F 100% 29.72 in 10.0 mi SW 6.9 mph - N/A   Scattered Clouds
4:15 AM 62.6 °F 62.6 °F 100% 29.72 in 10.0 mi SW 9.2 mph - N/A   Clear
4:35 AM 62.6 °F 62.6 °F 100% 29.68 in 10.0 mi SW 4.6 mph - N/A   Clear
4:36 AM 62.6 °F 62.6 °F 100% 29.68 in 10.0 mi SW 4.6 mph - N/A   Clear
4:55 AM 62.6 °F 62.6 °F 100% 29.64 in 10.0 mi West 4.6 mph - N/A   Clear
5:15 AM 62.6 °F 60.8 °F 94% 29.63 in 10.0 mi West 4.6 mph - N/A   Clear
5:35 AM 62.6 °F 60.8 °F 94% 29.67 in 10.0 mi West 5.8 mph - N/A   Clear
5:36 AM 62.6 °F 60.8 °F 94% 29.67 in 10.0 mi West 5.8 mph - N/A   Clear
5:55 AM 62.6 °F 62.6 °F 100% 29.70 in 10.0 mi West 5.8 mph - N/A   Clear
6:15 AM 62.6 °F 62.6 °F 100% 29.71 in 10.0 mi WNW 3.5 mph - N/A   Clear
6:16 AM 62.6 °F 62.6 °F 100% 29.72 in 10.0 mi WNW 4.6 mph - N/A   Clear
6:35 AM 62.6 °F 62.6 °F 100% 29.75 in 10.0 mi Calm Calm - N/A   Clear
6:36 AM 62.6 °F 62.6 °F 100% 29.75 in 10.0 mi West 3.5 mph - N/A   Clear
6:55 AM 62.6 °F 62.6 °F 100% 29.77 in 10.0 mi Calm Calm - N/A   Clear
6:56 AM 62.6 °F 62.6 °F 100% 29.77 in 10.0 mi Calm Calm - N/A   Clear
7:15 AM 62.6 °F 62.6 °F 100% 29.79 in 10.0 mi WSW 3.5 mph - N/A   Clear
7:35 AM 62.6 °F 62.6 °F 100% 29.81 in 10.0 mi SW 6.9 mph - N/A   Clear
7:36 AM 62.6 °F 62.6 °F 100% 29.81 in 10.0 mi SW 6.9 mph - N/A   Clear
7:55 AM 62.6 °F 62.6 °F 100% 29.83 in 10.0 mi SW 6.9 mph - N/A   Mostly Cloudy
7:56 AM 62.6 °F 62.6 °F 100% 29.83 in 10.0 mi SW 8.1 mph - N/A   Mostly Cloudy
8:15 AM 62.6 °F 62.6 °F 100% 29.84 in 10.0 mi WSW 8.1 mph - N/A   Overcast
8:35 AM 62.6 °F 62.6 °F 100% 29.85 in 10.0 mi WSW 6.9 mph - N/A   Overcast
8:55 AM 62.6 °F 62.6 °F 100% 29.86 in 10.0 mi WSW 10.4 mph 16.1 mph N/A   Overcast
8:56 AM 62.6 °F 62.6 °F 100% 29.86 in 10.0 mi WSW 10.4 mph 16.1 mph N/A   Overcast
9:15 AM 62.6 °F 62.6 °F 100% 29.86 in 10.0 mi WSW 9.2 mph - N/A   Overcast
9:16 AM 62.6 °F 62.6 °F 100% 29.86 in 10.0 mi WSW 9.2 mph - N/A   Overcast
9:35 AM 64.4 °F 62.6 °F 94% 29.87 in 10.0 mi West 6.9 mph - N/A   Overcast
9:36 AM 64.4 °F 62.6 °F 94% 29.87 in 10.0 mi West 5.8 mph - N/A   Overcast
9:55 AM 64.4 °F 62.6 °F 94% 29.88 in 10.0 mi West 6.9 mph - N/A   Overcast
9:56 AM 64.4 °F 62.6 °F 94% 29.88 in 10.0 mi West 5.8 mph - N/A   Overcast
10:15 AM 64.4 °F 62.6 °F 94% 29.87 in 10.0 mi WNW 8.1 mph - N/A   Overcast
10:16 AM 66.2 °F 62.6 °F 88% 29.87 in 10.0 mi West 5.8 mph - N/A   Overcast
10:35 AM 66.2 °F 62.6 °F 88% 29.87 in 10.0 mi West 8.1 mph - N/A   Overcast
10:36 AM 66.2 °F 62.6 °F 88% 29.87 in 10.0 mi West 9.2 mph - N/A   Overcast
10:55 AM 66.2 °F 64.4 °F 94% 29.87 in 10.0 mi WSW 6.9 mph - N/A   Overcast
10:56 AM 66.2 °F 64.4 °F 94% 29.87 in 10.0 mi WSW 5.8 mph - N/A   Overcast
11:15 AM 68.0 °F 64.4 °F 88% 29.86 in 10.0 mi West 8.1 mph - N/A   Mostly Cloudy
11:16 AM 68.0 °F 64.4 °F 88% 29.86 in 10.0 mi West 8.1 mph - N/A   Mostly Cloudy
11:35 AM 69.8 °F 64.4 °F 83% 29.86 in 10.0 mi WSW 8.1 mph - N/A   Scattered Clouds
11:36 AM 69.8 °F 64.4 °F 83% 29.86 in 10.0 mi WSW 10.4 mph - N/A   Scattered Clouds
11:55 AM 68.0 °F 64.4 °F 88% 29.86 in 10.0 mi WSW 8.1 mph - N/A   Scattered Clouds
12:15 PM 69.8 °F 64.4 °F 83% 29.86 in 10.0 mi WSW 9.2 mph - N/A   Clear
12:35 PM 71.6 °F 64.4 °F 78% 29.86 in 10.0 mi WNW 6.9 mph - N/A   Scattered Clouds
12:36 PM 71.6 °F 64.4 °F 78% 29.86 in 10.0 mi WNW 8.1 mph - N/A   Scattered Clouds
12:55 PM 71.6 °F 62.6 °F 73% 29.86 in 10.0 mi WNW 9.2 mph 16.1 mph N/A   Mostly Cloudy
1:15 PM 73.4 °F 64.4 °F 73% 29.87 in 10.0 mi WNW 10.4 mph 16.1 mph N/A   Scattered Clouds
1:16 PM 73.4 °F 64.4 °F 73% 29.87 in 10.0 mi WNW 10.4 mph 16.1 mph N/A   Scattered Clouds
1:35 PM 71.6 °F 64.4 °F 78% 29.87 in 10.0 mi WNW 8.1 mph 19.6 mph N/A   Scattered Clouds
1:55 PM 71.6 °F 62.6 °F 73% 29.87 in 10.0 mi NW 10.4 mph 18.4 mph N/A   Scattered Clouds
2:15 PM 73.4 °F 62.6 °F 69% 29.87 in 10.0 mi NW 12.7 mph 18.4 mph N/A   Clear
2:35 PM 73.4 °F 62.6 °F 69% 29.87 in 10.0 mi WNW 11.5 mph 24.2 mph N/A   Clear
2:55 PM 73.4 °F 64.4 °F 73% 29.87 in 10.0 mi NW 11.5 mph 18.4 mph N/A   Scattered Clouds
2:56 PM 73.4 °F 62.6 °F 69% 29.87 in 10.0 mi NW 10.4 mph 18.4 mph N/A   Scattered Clouds
3:15 PM 73.4 °F 62.6 °F 69% 29.87 in 10.0 mi WNW 10.4 mph 18.4 mph N/A   Scattered Clouds
3:35 PM 73.4 °F 62.6 °F 69% 29.87 in 10.0 mi NW 11.5 mph 16.1 mph N/A   Clear
3:36 PM 73.4 °F 62.6 °F 69% 29.87 in 10.0 mi NW 10.4 mph 16.1 mph N/A   Clear
3:55 PM 71.6 °F 62.6 °F 73% 29.87 in 10.0 mi NW 6.9 mph 16.1 mph N/A   Scattered Clouds
4:15 PM 71.6 °F 62.6 °F 73% 29.87 in 10.0 mi NNW 10.4 mph - N/A   Scattered Clouds
4:16 PM 71.6 °F 62.6 °F 73% 29.87 in 10.0 mi NNW 12.7 mph - N/A   Scattered Clouds
4:35 PM 71.6 °F 60.8 °F 69% 29.88 in 10.0 mi NW 8.1 mph - N/A   Clear
4:36 PM 71.6 °F 60.8 °F 69% 29.88 in 10.0 mi NW 8.1 mph - N/A   Clear
4:55 PM 71.6 °F 59.0 °F 64% 29.89 in 10.0 mi NW 5.8 mph - N/A   Clear
4:56 PM 71.6 °F 59.0 °F 64% 29.89 in 10.0 mi NW 6.9 mph - N/A   Clear
5:15 PM 71.6 °F 57.2 °F 60% 29.89 in 10.0 mi NW 10.4 mph - N/A   Clear
5:35 PM 71.6 °F 57.2 °F 60% 29.90 in 10.0 mi WNW 5.8 mph - N/A   Clear
5:55 PM 69.8 °F 57.2 °F 64% 29.90 in 10.0 mi North 6.9 mph - N/A   Clear
6:35 PM 69.8 °F 57.2 °F 64% 29.90 in 10.0 mi NNW 8.1 mph - N/A   Clear
6:55 PM 69.8 °F 57.2 °F 64% 29.90 in 10.0 mi Calm Calm - N/A   Clear
7:15 PM 68.0 °F 57.2 °F 68% 29.90 in 10.0 mi NNW 4.6 mph - N/A   Clear
7:35 PM 66.2 °F 57.2 °F 73% 29.91 in 10.0 mi Calm Calm - N/A   Clear
7:55 PM 66.2 °F 57.2 °F 73% 29.91 in 10.0 mi Calm Calm - N/A   Clear
7:56 PM 66.2 °F 57.2 °F 73% 29.91 in 10.0 mi Calm Calm - N/A   Clear
8:15 PM 64.4 °F 60.8 °F 88% 29.91 in 10.0 mi Calm Calm - N/A   Clear
8:16 PM 62.6 °F 59.0 °F 88% 29.91 in 10.0 mi Calm Calm - N/A   Clear
8:35 PM 62.6 °F 59.0 °F 88% - 10.0 mi Calm Calm - N/A   Clear
8:55 PM 60.8 °F 59.0 °F 94% 29.92 in 10.0 mi Calm Calm - N/A   Clear
8:56 PM 60.8 °F 59.0 °F 94% 29.92 in 10.0 mi Calm Calm - N/A   Clear
9:15 PM 59.0 °F 59.0 °F 100% 29.94 in 10.0 mi Calm Calm - N/A   Clear
9:16 PM 59.0 °F 59.0 °F 100% 29.94 in 10.0 mi Calm Calm - N/A   Clear
9:35 PM 60.8 °F 59.0 °F 94% 29.94 in 10.0 mi Calm Calm - N/A   Clear
9:55 PM 57.2 °F 57.2 °F 100% 29.94 in 10.0 mi Calm Calm - N/A   Clear
10:15 PM 57.2 °F 57.2 °F 100% 29.95 in 10.0 mi Calm Calm - N/A   Clear
10:35 PM 57.2 °F 57.2 °F 100% 29.95 in 10.0 mi Calm Calm - N/A   Clear
10:55 PM 57.2 °F 57.2 °F 100% 29.95 in 10.0 mi Calm Calm - N/A   Clear
11:15 PM 57.2 °F 57.2 °F 100% 29.96 in 5.0 mi Calm Calm - N/A   Clear
11:16 PM 57.2 °F 57.2 °F 100% 29.96 in 7.0 mi Calm Calm - N/A   Clear
11:35 PM 57.2 °F 57.2 °F 100% 29.96 in 10.0 mi Calm Calm - N/A   Clear
11:55 PM 55.4 °F 55.4 °F 100% 29.97 in 7.0 mi Calm Calm - N/A   Clear
11:56 PM 55.4 °F 55.4 °F 100% 29.97 in 7.0 mi Calm Calm - N/A   Clear